Weather History for Mercury, NV

Change the Weather History Date:

Friday, March 1, 2013

  Actual Average Record
Temperature  
Mean Temperature 54 °F -  
Max Temperature 72 °F 57 °F 73 °F (2009)
Min Temperature 37 °F 35 °F 25 °F (2007)
Degree Days  
Heating Degree Days 10    
Growing Degree Days 4 (Base 50)    
Moisture  
Dew Point 17 °F    
Average Humidity 23    
Maximum Humidity 37    
Minimum Humidity 8    
Precipitation  
Precipitation 0.00 in - - ()
Sea Level Pressure  
Sea Level Pressure 30.33 in    
Wind  
Wind Speed 4 mph (East)    
Max Wind Speed 15 mph    
Max Gust Speed -    
Visibility 10 miles    
Events      
Averages and records for this station are not official NWS values.
T = Trace of Precipitation, MM = Missing Value Source: NWS Daily Summary

Daily Weather History Graph

Daily Weather History Graph

Search for Another Location

Airport:

Trip Planner

Search our weather history database for the weather conditions in past years. The results will help you decide how hot, cold, wet, or windy it might be!

Date:

Astronomy

Mar. 01, 2013 Rise Set
Actual Time 6:14 AM PST 5:38 PM PST
Civil Twilight 5:48 AM PST 6:04 PM PST
Nautical Twilight 5:18 AM PST 6:34 PM PST
Astronomical Twilight 4:48 AM PST 7:04 PM PST
Moon 10:08 PM PST (3/1) 8:11 AM PST (3/1)
Length of Visible Light 12h 16m
Length of Day
11h 24m
Waning Gibbous, 82% of the Moon is Illuminated
Mar 1
Waning Gibbous
Mar 4
Last Quarter
Mar 11
New
Mar 19
First Quarter
Mar 27
Full

Hourly Weather History & Observations

Time (PST) Temp. Windchill Dew Point Humidity Pressure Visibility Wind Dir Wind Speed Gust Speed Precip Events Conditions
12:52 AM 39.0 °F - 9.0 °F 29% 30.39 in 10.0 mi Calm Calm - N/A   Clear
1:52 AM 37.0 °F 33.3 °F 9.0 °F 31% 30.39 in 10.0 mi ESE 4.6 mph - N/A   Clear
2:52 AM 39.9 °F 33.4 °F 9.0 °F 28% 30.37 in 10.0 mi SE 10.4 mph - N/A   Clear
3:52 AM 39.9 °F - 10.0 °F 29% 30.38 in 10.0 mi Calm Calm - N/A   Clear
4:52 AM 39.0 °F 36.8 °F 10.9 °F 32% 30.40 in 10.0 mi ENE 3.5 mph - N/A   Clear
5:52 AM 42.1 °F - 10.0 °F 27% 30.40 in 10.0 mi Calm Calm - N/A   Clear
6:52 AM 42.1 °F - 10.9 °F 28% 30.42 in 10.0 mi Calm Calm - N/A   Clear
7:52 AM 53.1 °F - 12.9 °F 20% 30.42 in 10.0 mi ESE 4.6 mph - N/A   Clear
8:52 AM 55.9 °F - 15.1 °F 20% 30.40 in 10.0 mi NNE 13.8 mph - N/A   Clear
9:52 AM 61.0 °F - 17.1 °F 18% 30.39 in 10.0 mi NE 15.0 mph - N/A   Clear
10:52 AM 64.0 °F - 17.1 °F 16% 30.37 in 10.0 mi SE 3.5 mph - N/A   Clear
11:52 AM 66.9 °F - 19.9 °F 17% 30.34 in 10.0 mi SE 8.1 mph - N/A   Clear
12:52 PM 70.0 °F - 21.9 °F 16% 30.31 in 10.0 mi SE 13.8 mph - N/A   Clear
1:52 PM 71.1 °F - 21.9 °F 16% 30.29 in 10.0 mi NNE 9.2 mph - N/A   Clear
2:52 PM 73.0 °F - 21.9 °F 15% 30.27 in 10.0 mi NNE 10.4 mph - N/A   Clear
3:52 PM 71.1 °F - 21.9 °F 16% 30.26 in 10.0 mi ESE 4.6 mph - N/A   Clear
4:52 PM 70.0 °F - 21.9 °F 16% 30.25 in 10.0 mi East 5.8 mph - N/A   Clear
5:52 PM 64.0 °F - 21.0 °F 19% 30.25 in 10.0 mi East 6.9 mph - N/A   Clear
6:52 PM 57.0 °F - 21.0 °F 25% 30.27 in 10.0 mi East 6.9 mph - N/A   Clear
7:52 PM 57.9 °F - 21.9 °F 25% 30.27 in 10.0 mi Calm Calm - N/A   Clear
8:52 PM 54.0 °F - 21.9 °F 29% 30.29 in 10.0 mi Calm Calm - N/A   Clear
9:52 PM 50.0 °F - 21.9 °F 33% 30.30 in 10.0 mi Calm Calm - N/A   Clear
10:52 PM 46.9 °F - 21.9 °F 37% 30.30 in 10.0 mi Calm Calm - N/A   Clear
11:52 PM 46.9 °F - 21.9 °F 37% 30.30 in 10.0 mi East 5.8 mph - N/A   Clear